Date String (YYYY-MM-DD hh:mm:ss) UTC,Instrument flags,Ambient pressure (hPa),Sample flow (lpm),Bypass flow (lpm),Sample temperature (°C),Ambient temperature (°C),ASC tube jacket temperature (°C),LED temperature (°C),Box temperature (°C),Sample RH (%),Span deviation,Mass concentration (μg/m³),Mass concentration (μg/m³),Mass concentration (μg/m³)
DateTimeUTC,F1_M11,P_M11,Q1_M11,Q2_M11,T1_M11,T2_M11,T3_M11,T4_M11,T5_M11,U1_M11,ZSPAN_M11,X2_M11,X0_M11,X1_M11
2023-05-23 21:00:00,,0829.8,5.00,0.00,29.3,26.2,00.0,37.5,30.8,22.9,0003.6,0021.33,0031.72,0020.17
2023-05-23 21:01:00,,0829.8,5.01,0.00,29.3,26.5,00.0,37.5,30.9,22.6,0003.5,0021.25,0031.55,0020.10
2023-05-23 21:02:00,,0829.8,4.99,0.00,29.3,26.8,00.0,37.6,30.9,22.2,0003.6,0021.14,0031.81,0020.01
2023-05-23 21:03:00,,0829.8,4.99,0.00,29.3,27.1,00.0,37.6,31.0,22.8,0003.5,0021.01,0031.87,0019.90
2023-05-23 21:04:00,,0829.8,5.00,0.00,29.3,27.3,00.0,37.6,31.0,21.9,0003.5,0020.96,0033.33,0019.84
2023-05-23 21:05:00,,0829.8,5.01,0.00,29.3,27.6,00.0,37.6,31.1,21.3,0003.4,0020.91,0033.74,0019.80
2023-05-23 21:06:00,,0829.8,5.00,0.00,29.4,27.8,00.0,37.6,31.1,21.6,0003.3,0020.87,0033.91,0019.75
2023-05-23 21:07:00,,0829.8,5.01,0.00,29.4,27.9,00.0,37.6,31.1,22.0,0003.2,0020.79,0033.56,0019.68
2023-05-23 21:08:00,,0829.8,4.99,0.00,29.4,27.8,00.0,37.7,31.2,22.0,0003.2,0020.68,0033.45,0019.63
2023-05-23 21:09:00,,0829.9,4.98,0.00,29.4,26.3,00.0,37.6,31.0,22.2,0003.3,0020.60,0033.61,0019.59
2023-05-23 21:10:00,,0829.8,5.00,0.00,29.3,24.9,00.0,37.5,30.7,21.8,0003.2,0020.53,0033.04,0019.55
2023-05-23 21:11:00,,0829.8,5.01,0.00,29.3,24.9,00.0,37.4,30.7,22.9,0003.3,0020.54,0033.42,0019.56
2023-05-23 21:12:00,,0829.8,5.00,0.00,29.2,25.2,00.0,37.4,30.6,22.2,0003.4,0020.42,0033.29,0019.50
2023-05-23 21:13:00,,0829.8,5.00,0.00,29.1,25.6,00.0,37.4,30.6,23.4,0003.3,0020.33,0032.63,0019.42
2023-05-23 21:14:00,,0829.8,5.00,0.00,29.1,26.0,00.0,37.4,30.7,22.4,0003.4,0020.31,0032.37,0019.39
2023-05-23 21:15:00,,0829.8,5.00,0.00,29.1,26.4,00.0,37.4,30.7,21.5,0003.4,0020.28,0031.29,0019.37
2023-05-23 21:16:00,,0829.7,4.99,0.00,29.1,26.7,00.0,37.5,30.8,21.9,0003.5,0020.22,0030.80,0019.31
2023-05-23 21:17:00,,0829.7,5.00,0.00,29.1,27.0,00.0,37.5,30.8,21.7,0003.6,0020.15,0030.89,0019.26
2023-05-23 21:18:00,,0829.7,5.01,0.00,29.2,27.3,00.0,37.5,30.9,21.8,0003.6,0020.18,0032.04,0019.24
2023-05-23 21:19:00,,0829.7,5.00,0.00,29.2,27.5,00.0,37.5,30.9,22.2,0003.7,0020.19,0031.61,0019.20
2023-05-23 21:20:00,,0829.7,5.00,0.00,29.2,27.7,00.0,37.5,31.0,21.9,0003.6,0020.11,0031.18,0019.11
2023-05-23 21:21:00,,0829.8,4.99,0.00,29.3,27.8,00.0,37.5,31.0,21.6,0003.6,0020.02,0030.99,0019.01
2023-05-23 21:22:00,,0829.7,4.99,0.00,29.3,28.0,00.0,37.5,31.1,21.4,0003.6,0019.94,0030.89,0018.94
2023-05-23 21:23:00,,0829.7,5.00,0.00,29.3,28.1,00.0,37.6,31.1,21.3,0003.5,0019.91,0031.41,0018.88
2023-05-23 21:24:00,,0829.7,5.01,0.00,29.4,28.2,00.0,37.6,31.2,21.2,0003.5,0019.86,0032.43,0018.80
2023-05-23 21:25:00,,0829.7,4.98,0.00,29.4,27.5,00.0,37.6,31.1,21.4,0003.4,0019.79,0033.08,0018.71
2023-05-23 21:26:00,,0829.7,5.00,0.00,29.4,26.1,00.0,37.5,30.9,22.0,0003.5,0019.67,0032.21,0018.58
2023-05-23 21:27:00,,0829.7,5.02,0.00,29.3,25.9,00.0,37.4,30.8,22.2,0003.5,0019.57,0032.17,0018.46
2023-05-23 21:28:00,,0829.7,5.00,0.00,29.3,26.1,00.0,37.5,30.8,22.0,0003.5,0019.47,0032.23,0018.33
2023-05-23 21:29:00,,0829.7,4.99,0.00,29.2,26.4,00.0,37.5,30.8,22.0,0003.5,0019.29,0031.39,0018.19
2023-05-23 21:30:00,,0829.7,5.00,0.00,29.2,26.7,00.0,37.5,30.9,21.7,0003.5,0019.06,0031.74,0018.01
2023-05-23 21:31:00,,0829.7,5.01,0.00,29.3,27.0,00.0,37.5,30.9,21.3,0003.6,0018.90,0031.18,0017.88
2023-05-23 21:32:00,,0829.7,5.00,0.00,29.3,27.3,00.0,37.5,31.0,21.4,0003.6,0018.82,0030.98,0017.80
2023-05-23 21:33:00,,0829.7,4.98,0.00,29.3,27.5,00.0,37.5,31.0,21.4,0003.6,0018.69,0030.78,0017.68
2023-05-23 21:34:00,,0829.7,5.00,0.00,29.3,27.7,00.0,37.6,31.1,22.1,0003.6,0018.56,0029.87,0017.56
2023-05-23 21:35:00,,0829.7,5.00,0.00,29.3,27.9,00.0,37.6,31.1,22.2,0003.6,0018.49,0028.42,0017.48
2023-05-23 21:36:00,,0829.7,5.00,0.00,29.4,28.0,00.0,37.6,31.2,23.4,0003.7,0018.41,0028.04,0017.43
2023-05-23 21:37:00,,0829.7,5.00,0.00,29.4,27.7,00.0,37.6,31.2,23.1,0003.7,0018.39,0028.54,0017.40
2023-05-23 21:38:00,,0829.7,5.00,0.00,29.4,26.2,00.0,37.5,31.0,23.1,0003.7,0018.44,0028.49,0017.44
2023-05-23 21:39:00,,0829.7,5.00,0.00,29.3,25.8,00.0,37.5,30.9,22.0,0003.6,0018.49,0028.51,0017.48
2023-05-23 21:40:00,,0829.7,5.01,0.00,29.3,26.0,00.0,37.5,30.8,21.7,0003.6,0018.52,0028.52,0017.52
2023-05-23 21:41:00,,0829.7,5.00,0.00,29.3,26.3,00.0,37.5,30.8,22.0,0003.6,0018.66,0027.44,0017.63
2023-05-23 21:42:00,,0829.7,4.99,0.00,29.2,26.6,00.0,37.5,30.8,21.8,0003.6,0018.82,0028.05,0017.73
2023-05-23 21:43:00,,0829.7,5.00,0.00,29.3,26.9,00.0,37.5,30.9,22.4,0003.6,0018.87,0028.73,0017.76
2023-05-23 21:44:00,,0829.7,5.01,0.00,29.3,27.2,00.0,37.5,31.0,21.6,0003.7,0018.98,0029.07,0017.84
2023-05-23 21:45:00,,0829.7,5.01,0.00,29.3,27.4,00.0,37.6,31.0,22.4,0003.7,0019.04,0029.07,0017.89
2023-05-23 21:46:00,,0829.7,4.99,0.00,29.3,27.6,00.0,37.6,31.1,22.3,0003.7,0019.10,0029.46,0017.94
2023-05-23 21:47:00,,0829.7,4.99,0.00,29.4,27.8,00.0,37.6,31.1,22.9,0003.6,0019.14,0030.26,0017.98
2023-05-23 21:48:00,,0829.7,5.00,0.00,29.4,28.0,00.0,37.6,31.2,23.3,0003.6,0019.16,0029.54,0018.00
2023-05-23 21:49:00,,0829.7,5.01,0.00,29.4,28.1,00.0,37.6,31.2,21.9,0003.4,0019.12,0029.38,0017.99
2023-05-23 21:50:00,,0829.7,5.00,0.00,29.5,27.6,00.0,37.6,31.2,21.9,0003.5,0019.02,0028.84,0017.94
2023-05-23 21:51:00,,0829.7,5.00,0.00,29.4,25.8,00.0,37.5,30.9,22.3,0003.5,0019.00,0028.72,0017.91
2023-05-23 21:52:00,,0829.7,5.01,0.00,29.3,25.0,00.0,37.5,30.7,22.8,0003.5,0018.90,0028.79,0017.84
2023-05-23 21:53:00,,0829.7,5.01,0.00,29.3,25.2,00.0,37.4,30.7,22.5,0003.4,0018.81,0028.56,0017.80
2023-05-23 21:54:00,,0829.7,4.99,0.00,29.2,25.5,00.0,37.4,30.6,22.9,0003.4,0018.73,0028.01,0017.74
2023-05-23 21:55:00,,0829.7,4.99,0.00,29.1,25.9,00.0,37.5,30.7,22.7,0003.3,0018.70,0027.57,0017.72
2023-05-23 21:56:00,,0829.7,5.01,0.00,29.1,26.3,00.0,37.5,30.7,23.3,0003.4,0018.63,0027.39,0017.69
2023-05-23 21:57:00,,0829.7,5.00,0.00,29.2,26.6,00.0,37.5,30.8,23.9,0003.5,0018.62,0027.10,0017.67
2023-05-23 21:58:00,,0829.7,4.99,0.00,29.2,26.9,00.0,37.5,30.9,23.4,0003.5,0018.59,0026.19,0017.64
2023-05-23 21:59:00,,0829.7,5.00,0.00,29.2,27.2,00.0,37.5,30.9,23.1,0003.5,0018.53,0025.89,0017.62
